STARLINK-37587, 69837

Orbit data source: Space-Track

STARLINK-37587, 69837 is a payload satellite owned by SpaceX/Seattle (US) in LEO that was launched on Sun, 05 Jul 2026 UTC via an FALCON 9 launch vehicle from the Air Force Eastern Test Range (AFETR). Payload-class satellites include a variety of spacecraft equipped with specific instruments for various scientific and technological missions. These include communications satellites like Starlink; space stations such as the ISS; scientific satellites like the Hubble; Earth observation satellites from companies like Planet Labs, Umbra, and HawkEye 360; GPS; miniature CubeSats for education and research; and military/defense satellites.

Loading next visibility...
Identifier
69837, 2026-154U
Orbit
LEO
Country
Flag of USUS
Related business
Manufacturer
SpaceX/Seattle
Mission
Operational spacecraft
Bus & Motor
STARLINK V2MO, Unknown motor
Mass
575 kg wet, ~530 kg dry
Launch date (UTC)
2026-07-05 (2 months ago)
Launch vehicle
FALCON 9
Launch site
Air Force Eastern Test Range (AFETR)
Object type
Payload
Rocket body
Debris
Shape & HBR
BOX + PAN, 17.7 m
Radar Cross Section
Large (>1 m²)

Expand to show TLE details & history
Last TLE update: 11 hours ago

TLE from 11 hours ago
0 STARLINK-37587
1 69837U 26154U   26236.35582732  .00020722  00000-0  60339-3 0  9992
2 69837  53.1598  98.4127 0001910  94.0963 266.0258 15.35396439  9072
Epoch: 2026-08-24T08:32Z
TLE epoch observation values (Epoch: 2026-08-24T08:32:23.480Z)
Latitude
-0.00005°
Longitude
-2.32388°
Altitude
460.736 km
Speed
7.637 km/s
True Right ascension
06h 33m 39s
True Declination
0° 00' 00"
Sunlit
Object was in daylight at epoch
Visualization orbit readout
Latitude
Unknown
Longitude
Unknown
Altitude
Unknown
Speed
Unknown
Apparent Right ascension
Unknown
Apparent Declination
Unknown
Sunlit
N/A
Visualization observer readout
Local Sidereal Time
10:27:08
Azimuth
Unknown
Elevation
Unknown
Doppler factor
Unknown
Orbital elements
Apogee altitude
461.306 km
Perigee altitude
458.694 km
Semi-major axis
6,838.137 km
Eccentricity
0.00019
Inclination
53.1598°
RAAN
98.4127°
Arg. of periapsis
94.0963°
True anomaly
266.00397°
Mean anomaly
266.0258°
Eccentric anomaly
266.01488°
Mean motion
3.83828 °/min
Orbital period
93.79 mins
BSTAR
0.00060339
Loading maneuver chart data...
Computing Atmospheric mass density...
Loading historical data...
Loading historical data...
Loading historical data...
Loading historical data...
Loading historical data...
Loading historical data...
Loading historical data...

Documentation

Showing up to 5 results
|